TIME,DELAY(SENSOR),PRES,OXYGEN,RAWTEMP,T(OPTODE),TCPHASE,FLUOR,BETA(BETA700),BETA(BETA412),BETA(BETA440),CDOM,C(CSC),ED(ED411.90),ED(ED443.80),ED(ED489.40),ED(ED554.70),LU(LU412.20),LU(LU443.80),LU(LU489.40),LU(LU555.00),COMP,TILTX,TILTY,CHECK
1353190664,5807,865.5599975585938000,159.6585998535156200,390.7060852050781000,10.8858203887939450,38.8491592407226560,52,104,60,58,66,13598,2146959478,2147514697,2147281362,2147495122,2147088420,2146932397,2147695085,2147121901,251,-1,9,13752
1353194260,5805,983.9799804687500000,175.2023010253906200,471.6336059570312500,8.4069461822509770,39.0427894592285160,52,101,60,59,66,13595,2146958884,2147519853,2147294518,2147514843,2147088749,2146930349,2147710336,2147120457,678,-1,8,2793
1353197860,5807,1003.1500244140625000,190.6871948242187500,484.7172851562500000,8.0028610229492190,38.2227287292480500,52,100,61,58,66,13597,2146962834,2147516534,2147295085,2147520137,2147091172,2146926052,2147715392,2147121782,7,-1,9,37555
1353201460,5807,1008.5300292968750000,191.6734924316406200,486.4942932128906000,7.9478969573974610,38.1893005371093750,52,100,59,58,67,13596,2146961033,2147517129,2147292836,2147514624,2147093750,2146928365,2147713764,2147121773,399,-1,9,43619
1353205060,5807,1013.0499877929688000,192.8807983398437500,487.6749877929687500,7.9113659858703610,38.1323509216308600,53,100,59,58,68,13591,2146961636,2147517056,2147293357,2147517686,2147088658,2146926747,2147716132,2147123730,215,-1,9,12175
1353208660,5807,1015.5999755859375000,194.1354064941406200,488.8364868164062500,7.8754220008850100,38.0722694396972660,51,100,58,58,66,13593,2146960914,2147515446,2147295478,2147513938,2147090505,2146922852,2147715318,2147120402,231,-1,9,3173
1353212260,5806,1010.5100097656250000,195.5065002441406200,491.9754028320312500,7.7782359123229980,38.0400505065918000,53,103,58,58,66,13592,2146958921,2147518308,2147294646,2147518345,2147089161,2146926692,2147718848,2147119652,2603,-1,9,6465
1353215860,5805,1014.9699707031250000,196.0747070312500000,492.8192138671875000,7.7520990371704100,38.0182991027832000,52,99,59,59,66,13588,2146960795,2147517952,2147292946,2147517312,2147090944,2146923812,2147711725,2147121773,2948,-1,9,54607
1353219460,5804,1019.9199829101562000,195.7328033447265600,492.2575073242187500,7.7694997787475590,38.0307388305664060,52,100,60,58,66,13586,2146961005,2147517421,2147291574,2147515858,2147091163,2146925568,2147716086,2147117842,2915,-1,9,29232
1353223060,5804,1016.7299804687500000,196.2241058349609400,493.0013122558594000,7.7464590072631840,38.0123100280761700,52,100,60,58,67,13587,2146965549,2147518500,2147294034,2147522496,2147089325,2146926144,2147717696,2147120521,3316,-1,9,65047
1353226660,5805,1018.5100097656250000,196.1206054687500000,493.2759094238281000,7.7379531860351560,38.0240097045898440,52,99,59,70,67,13579,2146962029,2147515821,2147293860,2147517065,2147091931,2146926820,2147716361,2147120795,3324,-1,9,54891
1353230260,5806,1015.3599853515625000,195.1670989990234400,494.6955871582031000,7.6939630508422850,38.1089591979980500,52,98,59,58,67,13574,2146959652,2147513590,2147297709,2147519122,2147090148,2146925120,2147715035,2147120548,3477,-1,9,14472
1353233860,5808,1017.4099731445312000,195.7241973876953000,494.9039916992187500,7.6875061988830570,38.0768585205078100,52,103,61,57,67,13574,2146961691,2147517641,2147294171,2147513892,2147090468,2146925522,2147717705,2147121773,127,-1,9,27820
1353237460,5808,1019.9099731445312000,195.9064025878906200,494.0953979492187500,7.7125620841979980,38.0519981384277340,52,100,60,58,65,13575,2146961481,2147516836,2147294674,2147515657,2147090221,2146925522,2147717568,2147121682,177,-1,8,5797
1353241060,5806,1020.7299804687500000,195.6681060791015600,493.1867065429687500,7.7407169342041020,38.0512199401855500,52,100,59,58,66,13574,2146961974,2147518948,2147293330,2147517851,2147089874,2146925284,2147716041,2147116525,3330,-1,9,18669
1353244660,5805,1023.6599731445312000,195.5760955810547000,493.2648925781250000,7.7382950782775880,38.0579299926757800,52,99,59,56,67,13571,2146959040,2147517668,2147291611,2147517348,2147089938,2146930916,2147720274,2147122157,3386,-1,9,9508
1353248260,5804,1024.6500244140625000,194.8424072265625000,493.2846984863281000,7.7376790046691895,38.1051597595214840,52,100,59,58,66,13571,2146960073,2147515355,2147295597,2147520676,2147091392,2146928420,2147714806,2147122797,3523,-1,9,48617
1353251860,5804,1024.9300537109375000,194.0005950927734400,493.1546020507812500,7.7417101860046390,38.1563491821289060,52,101,61,59,66,13571,2146961344,2147515556,2147294674,2147515026,2147091547,2146924772,2147713152,2147123419,3548,-1,9,17638
1353255460,5805,1025.2199707031250000,194.5090026855468800,494.2739868164062500,7.7070279121398930,38.1430397033691400,53,101,60,57,67,13567,2146959606,2147517110,2147295058,2147515145,2147090944,2146922432,2147717284,2147122331,3417,-1,8,57517
1353259060,5806,1025.4499511718750000,195.2700958251953000,493.2290954589844000,7.7394051551818850,38.0765991210937500,52,99,60,58,66,13568,2146961371,2147517888,2147295286,2147518363,2147090358,2146925001,2147714880,2147120950,276,-1,9,34333
1353262660,5809,1022.5999755859375000,193.8829956054687500,493.4003906250000000,7.7340960502624510,38.1675415039062500,52,102,60,58,66,13565,2146959817,2147515382,2147294564,2147515218,2147089956,2146927058,2147717650,2147122706,81,-1,9,30726
1353266260,5805,1022.4400024414062000,197.6282958984375000,495.5304870605469000,7.6680879592895510,37.9683685302734400,52,101,58,58,66,13570,2146960621,2147514496,2147293421,2147517348,2147091556,2146927533,2147716160,2147120210,3465,-1,9,21048
1353269860,5807,1024.8000488281250000,196.8412017822265600,493.5802917480469000,7.7285227775573730,37.9841499328613300,52,100,60,57,66,13568,2146959954,2147516480,2147295780,2147518244,2147093184,2146928210,2147713673,2147120676,695,-1,9,3971
1353273460,5808,1024.8100585937500000,196.8105010986328000,493.7620849609375000,7.7228899002075195,37.9890899658203100,52,100,58,57,66,13570,2146960996,2147513563,2147295762,2147520036,2147092754,2146930331,2147716717,2147122212,689,-1,8,58524
1353277060,5806,1028.0300292968750000,196.8726043701172000,494.9462890625000000,7.6861939430236820,38.0058708190918000,52,100,59,58,67,13569,2146961435,2147516297,2147293376,2147517083,2147091876,2146924251,2147717522,2147119414,3403,-1,9,7945
1353280660,5805,1022.2999877929688000,195.3867950439453000,495.1315917968750000,7.6804509162902830,38.1024513244628900,52,99,60,58,66,13565,2146959808,2147518299,2147297929,2147515337,2147088923,2146926025,2147715062,2147119515,3311,-1,9,30546
1353284260,5807,1021.9600219726562000,198.2431030273437500,495.7164916992187500,7.6623249053955080,37.9336318969726560,53,99,59,58,67,13567,2146963474,2147514523,2147296713,2147515748,2147091602,2146926884,2147717513,2147120658,419,-1,9,58997
1353287860,5808,1021.0499877929688000,198.9376068115234400,496.8013916015625000,7.6286950111389160,37.9086990356445300,52,101,59,58,66,13567,2146960128,2147517019,2147294994,2147515072,2147091492,2146924077,2147713270,2147119808,534,-1,9,21129
1353291460,5809,1020.0000000000000000,197.5305023193359400,498.8129882812500000,7.5663127899169920,38.0321311950683600,52,103,58,59,67,13569,2146959570,2147518628,2147293933,2147517019,2147091492,2146926948,2147715072,2147122404,645,-1,9,8853
1353295060,5807,1021.1300048828125000,198.1896057128906200,498.3261108398437500,7.5814142227172850,37.9816093444824200,52,100,58,59,66,13566,2146961033,2147519076,2147295862,2147518317,2147091922,2146931785,2147718308,2147119652,917,-1,9,20150
1353298660,5804,1025.2099609375000000,198.8479003906250000,498.2565917968750000,7.5835709571838380,37.9397087097168000,53,378,59,58,67,13570,2146960210,2147519021,2147296182,2147517348,2147092352,2146926400,2147718381,2147120868,2808,-1,9,10718
1353302260,5808,1025.5799560546875000,197.4046020507812500,496.4072875976562500,7.6409111022949220,37.9977912902832000,52,100,60,59,67,13544,2146960914,2147517101,2147295387,2147515200,2147089088,2146923492,2147718052,2147119798,175,-1,8,25739
1353305860,5803,1022.2600097656250000,199.8627014160156200,498.8540039062500000,7.5650429725646970,37.8878784179687500,52,101,59,60,66,13541,2146962779,2147521782,2147297197,2147517193,2147092342,2146926125,2147715977,2147120100,2944,-1,9,13218
1353309460,5805,1020.3300170898438000,198.5908966064453000,498.0138854980469000,7.5910978317260740,37.9521903991699200,52,100,60,59,66,13540,2146958793,2147517376,2147299922,2147516918,2147089590,2146925074,2147719204,2147120420,3231,-1,9,31986
1353313060,5805,1023.4699707031250000,199.6045989990234400,498.7142944335937500,7.5693750381469730,37.9006996154785160,53,100,59,60,66,13539,2146960612,2147516900,2147295204,2147518390,2147094052,2146924900,2147712283,2147122194,3193,-1,9,54893
1353316660,5803,1025.6300048828125000,198.5346069335937500,497.4061889648437500,7.6099410057067870,37.9442481994628900,53,100,60,58,65,13537,2146961600,2147517357,2147296594,2147517074,2147093120,2146926326,2147713846,2147123602,3372,-1,9,17024
1353320260,5807,1030.4399414062500000,198.4669952392578000,496.8739013671875000,7.6264448165893555,37.9390792846679700,53,103,60,57,66,13539,2146963437,2147515081,2147294701,2147520539,2147092672,2146924672,2147712832,2147121545,3308,-1,9,26419
1353323860,5807,1028.1999511718750000,197.7841949462890600,497.1871948242187500,7.6167330741882320,37.9872093200683600,52,102,59,57,66,13536,2146963565,2147518162,2147294793,2147516745,2147091446,2146917120,2147719250,2147122962,3498,-1,9,22733
1353327460,5807,1029.1400146484375000,198.1201019287109400,496.9552001953125000,7.6239261627197270,37.9629516601562500,52,102,58,57,66,13534,2146965686,2147512027,2147293842,2147516836,2147091995,2146927616,2147712713,2147118025,3510,-1,9,53123
1353331060,5805,1026.7199707031250000,198.2127075195312500,496.9383850097656000,7.6244468688964840,37.9567298889160160,52,102,58,59,67,13533,2146959798,2147517193,2147292690,2147517211,2147089956,2146922358,2147713636,2147118820,365,-1,9,48022
1353333655,5806,1024.3299560546875000,199.3011016845703000,497.3960876464844000,7.6102561950683590,37.8965988159179700,52,103,59,58,66,13568,2146960256,2147519680,2147294354,2147515337,2147089325,2146922038,2147713773,2147120594,269,-1,9,63217
